Regional Weather Roundup
Issued by NWS State College, PA

Home | Current Version | Previous Version | Text Only | Print | Product List | Glossary On
Versions: 1 2 3 4 5 6 7 8 9 10 11 12 13 14 15 16 17 18 19 20 21 22 23 24 25 26 27 28 29 30 31 32 33 34 35 36 37 38 39 40 41 42 43 44 45 46 47 48 49 50
000
ASUS41 KCTP 212310
RWRCTP
PHLRWRCTP ALL

REGIONAL WEATHER ROUNDUP
NATIONAL WEATHER SERVICE STATE COLLEGE PA
700 PM EDT THU SEP 21 2017

Note: "fair" indicates few or no clouds below 12,000 feet with no
significant weather and/or obstructions to visibility.

* = STATION THAT DOES NOT REPORT PRECIPITATION /E.G. RAIN...SNOW...ETC/
    THUNDER OR FOG.

PAZ002>004-007>009-013>016-020>023-029>032-220000-
WESTERN PENNSYLVANIA

CITY           SKY/WX    TMP DP  RH WIND       PRES   REMARKS
ERIE           CLEAR     75  60  59 NE6       30.09S
MEADVILLE      CLEAR     77  64  64 N8        30.11R
FRANKLIN*      CLEAR     77  59  53 CALM      30.11S
NEW CASTLE     FAIR      81  65  58 MISG      30.08S
BEAVER COUNTY  NOT AVBL
BUTLER*        CLEAR     74  64  71 NE3       30.09S
PITTSBURGH INT PTCLDY    83  61  47 E3        30.07F
PITTSBURGH     CLEAR     80  59  48 CALM      30.07F
INDIANA*       CLEAR     75  64  69 CALM      30.12S
LATROBE        CLEAR     79  63  57 CALM      30.09F
WASHINGTON CO* CLEAR     75  66  73 CALM      30.08S
$$

PAZ004>006-010>012-017>019-024>028-033>037-041-042-045-046-049>053-220000-
CENTRAL PENNSYLVANIA

CITY           SKY/WX    TMP DP  RH WIND       PRES   REMARKS
BRADFORD       CLEAR     72  61  68 N5        30.14S
DUBOIS         CLEAR     73  57  57 CALM      30.11S
CLEARFIELD     CLEAR     74  57  55 N6        30.11R
JOHNSTOWN      CLEAR     74  59  59 NW6       30.13S
ALTOONA        CLEAR     71  62  73 CALM      30.10R
STATE COLLEGE  CLEAR     77  61  57 NE3       30.08S
WILLIAMSPORT   PTCLDY    78  65  63 CALM      30.03R
SELINSGROVE    PTCLDY    72  68  87 CALM      30.04S
FT INDIANTOWN  PTCLDY    76  67  72 CALM      30.03R
CAPITAL CITY   PTCLDY    84  60  44 CALM      30.03R
HARRISBURG     MOCLDY    79  69  71 CALM      30.02R
YORK           CLEAR     74  68  81 CALM      30.03S
$$

PAZ038>040-043-044-047-048-054-055-060>062-067>071-220000-
EASTERN PENNSYLVANIA

CITY           SKY/WX    TMP DP  RH WIND       PRES   REMARKS
SCRANTON       PTCLDY    77  62  59 CALM      30.06S
MOUNT POCONO   PTCLDY    71  61  70 NW6       30.10R
ALLENTOWN      PTCLDY    79  65  62 N7        30.02R
QUAKERTOWN*    CLOUDY    75  68  78 CALM      30.03S
READING        MOCLDY    81  63  54 N3        30.01R
LANCASTER      PTCLDY    80  66  62 NW7       30.02S
COATESVILLE    PTCLDY    77  64  65 CALM      30.04S
POTTSTOWN      PTCLDY    78  64  61 CALM      30.03R
BLUE BELL      PTCLDY    70  68  94 CALM      30.03R
DOYLESTOWN     PTCLDY    72  63  73 CALM      30.01S
WILLOW GROVE   NOT AVBL
NORTH PHILA    PTCLDY    80  60  50 NE5       30.02S
PHILADELPHIA   CLOUDY    81  61  50 NE5       30.00R
$$




USA.gov is the U.S. government's official web portal to all federal, state and local government web resources and services.